Home > Weather > Sarnen > Past weeks

Flag for Switzerland Weather for the Past 2 Weeks in Sarnen, Obwalden, Switzerland

Now
47 °F

Cool.


Feels Like: 43 °F
Forecast: 40 / 50 °F
Wind: 7 mph from Northeast

Location: Giswil

Current Time: Feb 8, 2016 at 1:46:14 PM

Latest Report: Feb 8, 2016 at 1:00 PM


Visibility: N/A

Pressure: 29.76 "Hg

Humidity: 72%

Dew point: 38 °F

Location of SarnenLocation

Historic Weather in Sarnen — Graph

°F

Sarnen Temperature Yesterday

Maximum temperature yesterday: 58 °F (at 1:00 AM)
Minimum temperature yesterday: 40 °F (at 8:00 PM)
Average temperature yesterday: 45 °F

High & Low Weather Summary for the Past Weeks

 TemperatureHumidityPressure
High62 °F (Feb 1, 2:00 PM)100% (Jan 26, 8:00 AM)30.67 "Hg (Jan 26, 8:00 AM)
Low27 °F (Jan 25, 8:00 AM)28% (Feb 7, 1:00 AM)29.62 "Hg (Feb 7, 10:00 AM)
Average40 °F86%30.30 "Hg
* Reported Jan 24 12:00 Noon — Feb 8 12:00 Noon, Sarnen, Weather by CustomWeather, © 2016

Note: Actual official high and low records may vary slightly from our data, if they occured in-between our weather recording intervals... More about our weather records

Advertising

Sarnen Weather History for the Previous 24 Hours

 ConditionsComfort  
Time TempWeatherWind HumidityBarometerVisibility
12:00 PM
Mon, Feb 8
44 °FQuite cool.6 mph79%29.76 "HgN/A
11:00 AM42 °FQuite cool.3 mph82%29.82 "HgN/A
10:00 AM38 °FChilly.1 mph91%29.88 "HgN/A
9:00 AM38 °FChilly.3 mph99%29.91 "HgN/A
8:00 AM37 °FChilly.7 mph100%29.90 "HgN/A
7:00 AM33 °FChilly.2 mph99%29.94 "HgN/A
6:00 AM34 °FChilly.1 mph99%29.94 "HgN/A
5:00 AM35 °FChilly.1 mph99%29.96 "HgN/A
9:00 PM
Sun, Feb 7
41 °FQuite cool.2 mph93%29.98 "HgN/A
8:00 PM40 °FQuite cool.2 mph98%29.97 "HgN/A
7:00 PM41 °FQuite cool.No wind97%29.96 "HgN/A
6:00 PM42 °FQuite cool.2 mph96%29.93 "HgN/A
5:00 PM42 °FQuite cool.3 mph93%29.91 "HgN/A
4:00 PM43 °FQuite cool.5 mph86%29.88 "HgN/A
3:00 PM47 °FCool.6 mph74%29.83 "HgN/A
2:00 PM49 °FCool.2 mph64%29.76 "HgN/A
1:00 PM49 °FCool.5 mph57%29.72 "HgN/A
Weather by CustomWeather, © 2016

See weather overviewHow to use our weather pages